7 * 24
多渠道服务支持
STARLINK-37278(NORAD编号68733)是美国SpaceX公司星链(Starlink)卫星星座中的一颗低地球轨道通信卫星,隶属于星链第二代卫星组网。星链项目旨在构建全球覆盖的低延迟宽带卫星互联网,该卫星采用扁平化设计,轻量化小型化构型便于批量发射部署,运行于约550公里高度近地轨道,可提供25毫秒级别低延迟互联网接入,支持流媒体、在线游戏、远程通讯等应用,为全球偏远地区、基础设施缺失区域提供互联网接入服务,目前承担在轨通信组网与星座扩展功能。
美国
(US)
| 数据来源 | 国际轨道数据 |
| 星历时间: | 2026-05-24T12:00:02+0800 1天前 查看轨道信息 |
| 半长轴: | 6797.323km |
| 偏心率: | 0.0002135 |
| 轨道倾角: | 97.286° |
| 近地点辐角 | 75.557° |
| 升交点赤经 | 7.844° |
| 平近点角 | 12.563° |
| 近地点: | 417.734km |
| 远地点: | 420.638km |
| 周期: | 92.954分钟 |
| 每日圈数: | 15.49159 |